Weather History for Branson, MO

Change the Weather History Date:

Tuesday, December 4, 2012

  Actual Average (KHRO) Record (KHRO)
Temperature  
Mean Temperature 52 °F 41 °F  
Max Temperature 62 °F 51 °F 74 °F (2001)
Min Temperature 41 °F 31 °F 7 °F (1905)
Degree Days  
Heating Degree Days 13 24  
Month to date heating degree days 94  
Since 1 July heating degree days 858  
Cooling Degree Days 0 0  
Month to date cooling degree days 0  
Year to date cooling degree days 1416  
Growing Degree Days 2 (Base 50)    
Moisture  
Dew Point 44 °F    
Average Humidity 75    
Maximum Humidity 100    
Minimum Humidity 44    
Precipitation  
Precipitation 0.83 in 0.12 in 1.42 in (1977)
Month to date precipitation 0.49  
Year to date precipitation 41.43  
Snow  
Snow 0.00 in 0.00 in 8.00 in (1902)
Month to date snowfall 0.0  
Since 1 July snowfall 0.5  
Snow Depth -    
Sea Level Pressure  
Sea Level Pressure 30.16 in    
Wind  
Wind Speed 5 mph (NNW)    
Max Wind Speed 15 mph    
Max Gust Speed 21 mph    
Visibility 8 miles    
Events Rain , Thunderstorm    
T = Trace of Precipitation, MM = Missing Value Source: NWS Daily Summary

Daily Weather History Graph

Daily Weather History Graph

Search for Another Location

Airport:

Trip Planner

Search our weather history database for the weather conditions in past years. The results will help you decide how hot, cold, wet, or windy it might be!

Date:

Astronomy

Dec. 04, 2012 Rise Set
Actual Time 7:09 AM CST 4:57 PM CST
Civil Twilight 6:40 AM CST 5:25 PM CST
Nautical Twilight 6:08 AM CST 5:57 PM CST
Astronomical Twilight 5:37 AM CST 6:28 PM CST
Moon 10:38 PM CST (12/4) 11:09 AM CST (12/4)
Length of Visible Light 10h 44m
Length of Day
9h 47m
Waning Gibbous, 69% of the Moon is Illuminated
Dec 4
Waning Gibbous
Dec 6
Last Quarter
Dec 13
New
Dec 19
First Quarter
Dec 28
Full

Hourly Weather History & Observations

Time (CST) Temp. Windchill Dew Point Humidity Pressure Visibility Wind Dir Wind Speed Gust Speed Precip Events Conditions
12:15 AM 62.6 °F - 55.4 °F 77% 29.98 in 10.0 mi South 5.8 mph - N/A   Partly Cloudy
12:35 AM 62.6 °F - 55.4 °F 77% 29.98 in 10.0 mi South 4.6 mph - N/A   Clear
12:55 AM 62.6 °F - 55.4 °F 77% 29.99 in 10.0 mi South 4.6 mph - N/A   Clear
1:15 AM 62.6 °F - 55.4 °F 77% 30.00 in 10.0 mi WNW 3.5 mph - N/A   Mostly Cloudy
1:35 AM 60.8 °F - 55.4 °F 82% 30.02 in 10.0 mi North 9.2 mph - N/A Thunderstorm Overcast
1:55 AM 62.6 °F - 55.4 °F 77% 30.02 in 10.0 mi North 10.4 mph - N/A Thunderstorm Overcast
2:15 AM 59.0 °F - 55.4 °F 88% 30.01 in 5.0 mi NW 6.9 mph - 0.17 in Rain , Thunderstorm Light Rain
2:35 AM 59.0 °F - 55.4 °F 88% 30.03 in 5.0 mi NW 8.1 mph - 0.18 in Thunderstorm Overcast
2:55 AM 57.2 °F - 55.4 °F 94% 30.02 in 5.0 mi NW 3.5 mph - 0.21 in Rain , Thunderstorm Light Rain
3:15 AM 57.2 °F - 57.2 °F 100% 30.01 in 10.0 mi Calm Calm - N/A Thunderstorm Overcast
3:35 AM 57.2 °F - 57.2 °F 100% 30.04 in 2.0 mi West 3.5 mph - 0.11 in Rain , Thunderstorm Heavy Thunderstorms and Rain
3:55 AM 57.2 °F - 57.2 °F 100% 30.04 in 1.5 mi WSW 6.9 mph - 0.48 in Rain , Thunderstorm Heavy Thunderstorms and Rain
4:15 AM 57.2 °F - 55.4 °F 94% 30.03 in 2.5 mi West 3.5 mph - 0.04 in Rain , Thunderstorm Thunderstorms and Rain
4:35 AM 57.2 °F - 57.2 °F 100% 30.04 in 3.0 mi Calm Calm - 0.08 in Rain , Thunderstorm Light Rain
4:55 AM 57.2 °F - 57.2 °F 100% 30.02 in 3.0 mi NE 3.5 mph - 0.10 in Rain , Thunderstorm Light Rain
5:15 AM 57.2 °F - 57.2 °F 100% 30.05 in 5.0 mi Calm Calm - N/A Rain , Thunderstorm Light Rain
5:35 AM 57.2 °F - 57.2 °F 100% 30.05 in 3.0 mi East 6.9 mph - 0.04 in Rain , Thunderstorm Light Rain
6:53 AM 53.6 °F - 53.6 °F 100% 30.08 in 5.0 mi NW 15.0 mph 20.7 mph N/A   Overcast
7:46 AM 51.8 °F - 51.8 °F 100% 30.12 in 2.0 mi North 12.7 mph 19.6 mph N/A   Overcast
8:48 AM 50.0 °F - 50.0 °F 100% 30.14 in 4.0 mi North 6.9 mph - N/A   Overcast
9:47 AM 50.0 °F - 50.0 °F 100% 30.17 in 1.0 mi North 10.4 mph - N/A   Overcast
10:46 AM 48.2 °F - 46.4 °F 93% 30.19 in 5.0 mi NNE 11.5 mph 19.6 mph N/A   Mostly Cloudy
11:51 AM 50.0 °F - 48.2 °F 94% 30.19 in 10.0 mi North 6.9 mph - N/A   Mostly Cloudy
12:48 PM 53.6 °F - 46.4 °F 77% 30.20 in 10.0 mi NNW 8.1 mph - N/A   Mostly Cloudy
1:50 PM 57.2 °F - 41.0 °F 55% 30.19 in 10.0 mi NNW 13.8 mph 18.4 mph N/A   Scattered Clouds
2:51 PM 57.2 °F - 35.6 °F 44% 30.21 in 10.0 mi North 11.5 mph - N/A   Partly Cloudy
3:45 PM 57.2 °F - 35.6 °F 44% 30.23 in 10.0 mi North 8.1 mph - N/A   Partly Cloudy
4:58 PM 51.8 °F - 35.6 °F 54% 30.26 in 10.0 mi North 8.1 mph - N/A   Scattered Clouds
5:54 PM 48.2 °F - 35.6 °F 62% 30.26 in 10.0 mi North 4.6 mph - N/A   Clear
6:57 PM 48.2 °F - 32.0 °F 54% 30.26 in 10.0 mi Calm Calm - N/A   Clear
7:56 PM 48.2 °F - 32.0 °F 54% 30.29 in 10.0 mi Calm Calm - N/A   Clear
8:15 PM 46.4 °F - 32.0 °F 57% 30.30 in 10.0 mi Calm Calm - N/A   Clear
8:35 PM 44.6 °F - 35.6 °F 71% 30.30 in 10.0 mi Calm Calm - N/A   Clear
8:50 PM 42.8 °F - 32.0 °F 66% 30.30 in 10.0 mi Calm Calm - N/A   Clear
8:55 PM 44.6 °F - 32.0 °F 61% 30.31 in 10.0 mi Calm Calm - N/A   Clear
9:15 PM 46.4 °F - 32.0 °F 57% 30.32 in 10.0 mi Calm Calm - N/A   Clear
9:35 PM 46.4 °F - 30.2 °F 53% 30.32 in 10.0 mi Calm Calm - N/A   Clear
9:55 PM 46.4 °F 45.2 °F 30.2 °F 53% 30.32 in 10.0 mi NE 3.5 mph - N/A   Clear
10:15 PM 46.4 °F 45.2 °F 30.2 °F 53% 30.33 in 10.0 mi NE 3.5 mph - N/A   Clear
10:35 PM 46.4 °F - 28.4 °F 50% 30.33 in 10.0 mi Calm Calm - N/A   Clear
10:55 PM 46.4 °F - 28.4 °F 50% 30.33 in 10.0 mi Calm Calm - N/A   Clear
11:15 PM 44.6 °F - 30.2 °F 57% 30.32 in 10.0 mi Calm Calm - N/A   Clear
11:35 PM 44.6 °F - 30.2 °F 57% 30.33 in 10.0 mi Calm Calm - N/A   Clear
11:55 PM 41.0 °F - 32.0 °F 70% 30.32 in 10.0 mi Calm Calm - N/A   Clear